Weather History for El Paso, TX

Change the Weather History Date:

Tuesday, April 9, 2013

  Actual Average Record
Temperature  
Mean Temperature 61 °F 63 °F  
Max Temperature 70 °F 77 °F 91 °F (1989)
Min Temperature 52 °F 49 °F 24 °F (1973)
Degree Days  
Heating Degree Days 4 4  
Month to date heating degree days 13 42  
Since 1 July heating degree days 2151 2415  
Cooling Degree Days 0 2  
Month to date cooling degree days 39 12  
Year to date cooling degree days 72 22  
Growing Degree Days 12 (Base 50)    
Moisture  
Dew Point 25 °F    
Average Humidity 33    
Maximum Humidity 50    
Minimum Humidity 15    
Precipitation  
Precipitation T in 0.01 in 0.54 in (1903)
Month to date precipitation T 0.06  
Year to date precipitation 0.71 1.18  
Snow  
Snow 0.00 in - - ()
Month to date snowfall 0.0  
Since 1 July snowfall 3.1  
Snow Depth 0.00 in    
Sea Level Pressure  
Sea Level Pressure 29.56 in    
Wind  
Wind Speed 20 mph (West)    
Max Wind Speed 44 mph    
Max Gust Speed 56 mph    
Visibility 7 miles    
Events Rain    
T = Trace of Precipitation, MM = Missing Value Source: NWS Daily Summary

Daily Weather History Graph

Daily Weather History Graph

Search for Another Location

Airport:

Trip Planner

Search our weather history database for the weather conditions in past years. The results will help you decide how hot, cold, wet, or windy it might be!

Date:

Astronomy

Apr. 09, 2013 Rise Set
Actual Time 6:43 AM MDT 7:30 PM MDT
Civil Twilight 6:18 AM MDT 7:55 PM MDT
Nautical Twilight 5:49 AM MDT 8:24 PM MDT
Astronomical Twilight 5:19 AM MDT 8:54 PM MDT
Moon 6:06 AM MDT (4/9) 7:08 PM MDT (4/9)
Length of Visible Light 13h 36m
Length of Day
12h 47m
Waning Crescent, 0% of the Moon is Illuminated
Apr 9
Waning Crescent
Apr 10
New
Apr 18
First Quarter
Apr 25
Full
May 2
Last Quarter

Hourly Weather History & Observations

Time (MDT) Temp. Dew Point Humidity Pressure Visibility Wind Dir Wind Speed Gust Speed Precip Events Conditions
12:51 AM 70.0 °F 19.9 °F 15% 29.31 in 10.0 mi SSW 18.4 mph 36.8 mph N/A   Clear
1:51 AM 69.1 °F 24.1 °F 18% 29.30 in 10.0 mi SSW 20.7 mph 32.2 mph N/A   Clear
2:51 AM 66.9 °F 25.0 °F 21% 29.31 in 10.0 mi SSW 16.1 mph 24.2 mph N/A   Clear
3:51 AM 66.0 °F 24.1 °F 20% 29.31 in 10.0 mi SW 19.6 mph 25.3 mph N/A   Clear
4:51 AM 63.0 °F 28.0 °F 27% 29.37 in 10.0 mi West 28.8 mph 40.3 mph N/A   Clear
5:17 AM 62.6 °F 24.8 °F 24% 29.58 in 2.5 mi West 31.1 mph 44.9 mph N/A   Widespread Dust
5:31 AM 62.6 °F 24.8 °F 24% 29.58 in 1.8 mi West 38.0 mph 54.1 mph N/A   Widespread Dust
5:51 AM 61.0 °F 24.1 °F 24% 29.40 in 2.0 mi West 36.8 mph 48.3 mph N/A   Widespread Dust
6:10 AM 60.8 °F 26.6 °F 27% 29.61 in 3.0 mi WSW 40.3 mph 55.2 mph N/A   Widespread Dust
6:22 AM 60.8 °F 26.6 °F 27% 29.61 in 2.0 mi WSW 40.3 mph 50.6 mph N/A   Widespread Dust
6:44 AM 60.8 °F 28.4 °F 29% 29.62 in 1.8 mi West 34.5 mph 52.9 mph N/A   Widespread Dust
6:51 AM 59.0 °F 28.0 °F 31% 29.44 in 1.8 mi West 33.4 mph 47.2 mph N/A   Widespread Dust
7:02 AM 59.0 °F 28.4 °F 31% 29.62 in 3.0 mi West 35.7 mph 44.9 mph N/A   Widespread Dust
7:31 AM 53.6 °F 33.8 °F 47% 29.65 in 5.0 mi WNW 24.2 mph 31.1 mph N/A   Widespread Dust
7:51 AM 53.1 °F 35.1 °F 50% 29.52 in 5.0 mi WNW 20.7 mph 29.9 mph N/A   Widespread Dust
8:08 AM 53.6 °F 33.8 °F 47% 29.69 in 2.0 mi West 29.9 mph 35.7 mph N/A   Widespread Dust
8:51 AM 54.0 °F 30.0 °F 40% 29.53 in 2.5 mi West 27.6 mph 41.4 mph N/A   Widespread Dust
9:32 AM 51.8 °F 32.0 °F 47% 29.71 in 6.0 mi West 23.0 mph 39.1 mph N/A   Widespread Dust
9:51 AM 53.1 °F 30.9 °F 43% 29.57 in 10.0 mi West 20.7 mph 28.8 mph N/A   Overcast
10:51 AM 52.0 °F 30.9 °F 45% 29.59 in 10.0 mi West 18.4 mph 31.1 mph N/A   Overcast
11:51 AM 53.1 °F 35.1 °F 50% 29.60 in 10.0 mi West 17.3 mph - 0.00 in Rain Light Rain
12:51 PM 57.0 °F 25.0 °F 29% 29.57 in 10.0 mi West 20.7 mph 28.8 mph 0.00 in   Overcast
1:51 PM 59.0 °F 21.9 °F 24% 29.55 in 8.0 mi West 9.2 mph 18.4 mph 0.00 in Rain Light Rain
2:51 PM 61.0 °F 16.0 °F 17% 29.53 in 7.0 mi West 19.6 mph 38.0 mph 0.00 in   Overcast
3:51 PM 62.1 °F 15.1 °F 16% 29.54 in 10.0 mi West 21.9 mph 29.9 mph N/A   Mostly Cloudy
4:51 PM 61.0 °F 18.0 °F 19% 29.56 in 10.0 mi West 17.3 mph 27.6 mph N/A   Overcast
5:51 PM 59.0 °F 18.0 °F 20% 29.60 in 10.0 mi West 17.3 mph - N/A   Mostly Cloudy
6:51 PM 59.0 °F 17.1 °F 20% 29.63 in 10.0 mi West 17.3 mph 21.9 mph N/A   Mostly Cloudy
7:51 PM 57.9 °F 19.9 °F 23% 29.65 in 10.0 mi WNW 15.0 mph 21.9 mph N/A   Mostly Cloudy
8:51 PM 57.0 °F 21.0 °F 25% 29.68 in 10.0 mi WNW 19.6 mph 27.6 mph N/A   Mostly Cloudy
9:51 PM 55.9 °F 24.1 °F 29% 29.72 in 10.0 mi WNW 17.3 mph 26.5 mph N/A   Mostly Cloudy
10:51 PM 55.0 °F 24.1 °F 30% 29.77 in 10.0 mi West 12.7 mph 19.6 mph N/A   Overcast
11:51 PM 54.0 °F 24.1 °F 31% 29.76 in 10.0 mi WNW 12.7 mph - N/A   Overcast